Time,TemperatureF,DewpointF,PressureIn,WindDirection,WindDirectionDegrees,WindSpeedMPH,WindSpeedGustMPH,Humidity,HourlyPrecipIn,Conditions,Clouds,dailyrainin,SoftwareType,DateUTC
2014-12-19 00:01:00,51.8,46.2,30.21,NW,315,0.0,0.0,81,0.00,,SCT300,0.00,VWS V15.00,2014-12-19 06:01:00,
2014-12-19 00:02:00,51.8,46.2,30.21,NW,315,0.0,0.0,81,0.00,,SCT300,0.00,VWS V15.00,2014-12-19 06:02:00,
2014-12-19 00:03:00,51.8,45.8,30.21,ESE,112,0.0,0.0,80,0.00,,SCT300,0.00,VWS V15.00,2014-12-19 06:03:00,
2014-12-19 00:08:00,51.8,45.8,30.21,NNW,338,0.0,0.0,80,0.00,,SCT300,0.00,VWS V15.00,2014-12-19 06:08:00,
2014-12-19 00:14:00,51.8,45.5,30.21,NE,45,0.0,0.0,79,0.00,,SCT300,0.00,VWS V15.00,2014-12-19 06:14:00,
2014-12-19 00:19:00,51.8,45.5,30.21,NE,45,0.0,0.0,79,0.00,,SCT300,0.00,VWS V15.00,2014-12-19 06:19:00,
2014-12-19 00:24:00,51.8,45.2,30.21,NNW,338,0.0,0.0,78,0.00,,SCT300,0.00,VWS V15.00,2014-12-19 06:24:00,
2014-12-19 00:29:00,52.0,45.0,30.21,NW,315,0.0,0.0,77,0.00,,SCT300,0.00,VWS V15.00,2014-12-19 06:29:00,
2014-12-19 00:30:00,52.0,45.0,30.21,NW,315,0.0,0.0,77,0.00,,SCT300,0.00,VWS V15.00,2014-12-19 06:30:00,
2014-12-19 00:34:00,52.2,44.8,30.21,NNE,22,0.0,0.0,76,0.00,,SCT300,0.00,VWS V15.00,2014-12-19 06:34:00,
2014-12-19 00:39:00,52.3,44.7,30.21,NNE,22,0.0,0.0,75,0.00,,SCT300,0.00,VWS V15.00,2014-12-19 06:39:00,
2014-12-19 00:44:00,52.5,44.1,30.21,WNW,292,0.0,0.0,73,0.00,,SCT300,0.00,VWS V15.00,2014-12-19 06:44:00,
2014-12-19 00:49:00,52.7,44.3,30.21,NNE,22,0.0,0.0,73,0.00,,SCT300,0.00,VWS V15.00,2014-12-19 06:49:00,
2014-12-19 00:54:00,52.7,43.9,30.21,East,90,0.0,0.0,72,0.00,,SCT300,0.00,VWS V15.00,2014-12-19 06:54:00,
2014-12-19 00:59:00,52.7,43.9,30.21,NNE,22,0.0,0.0,72,0.00,,SCT300,0.00,VWS V15.00,2014-12-19 06:59:00,
2014-12-19 01:00:00,52.7,43.9,30.21,NNE,22,0.0,0.0,72,0.00,,SCT300,0.00,VWS V15.00,2014-12-19 07:00:00,
2014-12-19 01:05:00,52.7,43.9,30.18,NNW,338,0.0,0.0,72,0.00,,SCT300,0.00,VWS V15.00,2014-12-19 07:05:00,
2014-12-19 01:10:00,52.7,43.2,30.18,NW,315,0.0,0.0,70,0.00,,SCT300,0.00,VWS V15.00,2014-12-19 07:10:00,
2014-12-19 01:15:00,52.7,43.2,30.18,NE,45,0.0,0.0,70,0.00,,SCT300,0.00,VWS V15.00,2014-12-19 07:15:00,
2014-12-19 01:20:00,52.7,42.8,30.18,NNE,22,0.0,0.0,69,0.00,,SCT300,0.00,VWS V15.00,2014-12-19 07:20:00,
2014-12-19 01:25:00,52.7,42.8,30.18,NNE,22,0.0,0.0,69,0.00,,SCT300,0.00,VWS V15.00,2014-12-19 07:25:00,
2014-12-19 01:30:00,52.9,42.2,30.18,NNW,338,0.0,0.0,67,0.00,,SCT300,0.00,VWS V15.00,2014-12-19 07:30:00,
2014-12-19 01:35:00,52.9,42.2,30.21,NW,315,0.0,0.0,67,0.00,,SCT300,0.00,VWS V15.00,2014-12-19 07:35:00,
2014-12-19 01:40:00,52.9,42.2,30.21,NNW,338,0.0,0.0,67,0.00,,SCT300,0.00,VWS V15.00,2014-12-19 07:40:00,
2014-12-19 01:47:00,52.9,42.6,30.21,NE,45,0.0,0.0,68,0.00,,SCT300,0.00,VWS V15.00,2014-12-19 07:47:00,
2014-12-19 01:48:00,52.9,42.2,30.21,NE,45,0.0,0.0,67,0.00,,SCT300,0.00,VWS V15.00,2014-12-19 07:48:00,
2014-12-19 01:53:00,52.9,42.2,30.21,ENE,68,0.0,0.0,67,0.00,,SCT300,0.00,VWS V15.00,2014-12-19 07:53:00,
2014-12-19 01:58:00,52.9,42.2,30.21,ESE,112,0.0,0.0,67,0.00,,SCT300,0.00,VWS V15.00,2014-12-19 07:58:00,
2014-12-19 02:00:00,52.9,42.2,30.21,ESE,112,0.0,0.0,67,0.00,,SCT300,0.00,VWS V15.00,2014-12-19 08:00:00,
2014-12-19 02:03:00,52.7,42.1,30.18,ESE,112,0.0,0.0,67,0.00,,SCT300,0.00,VWS V15.00,2014-12-19 08:03:00,
2014-12-19 02:09:00,52.5,42.3,30.18,ESE,112,0.0,0.0,68,0.00,,SCT300,0.00,VWS V15.00,2014-12-19 08:09:00,
2014-12-19 02:14:00,52.5,42.3,30.18,ENE,68,0.0,0.0,68,0.00,,SCT300,0.00,VWS V15.00,2014-12-19 08:14:00,
2014-12-19 02:19:00,52.3,42.1,30.18,ENE,68,0.0,0.0,68,0.00,,SCT300,0.00,VWS V15.00,2014-12-19 08:19:00,
2014-12-19 02:24:00,52.2,41.9,30.18,East,90,0.0,0.0,68,0.00,,SCT300,0.00,VWS V15.00,2014-12-19 08:24:00,
2014-12-19 02:29:00,52.2,41.9,30.18,NW,315,0.0,0.0,68,0.00,,SCT300,0.00,VWS V15.00,2014-12-19 08:29:00,
2014-12-19 02:30:00,52.2,41.9,30.18,NW,315,0.0,0.0,68,0.00,,SCT300,0.00,VWS V15.00,2014-12-19 08:30:00,
2014-12-19 02:34:00,52.2,41.9,30.18,East,90,0.0,0.0,68,0.00,,SCT300,0.00,VWS V15.00,2014-12-19 08:34:00,
2014-12-19 02:39:00,52.2,41.9,30.18,East,90,0.0,0.0,68,0.00,,SCT300,0.00,VWS V15.00,2014-12-19 08:39:00,
2014-12-19 02:44:00,52.3,41.7,30.18,NW,315,0.0,0.0,67,0.00,,SCT300,0.00,VWS V15.00,2014-12-19 08:44:00,
2014-12-19 02:49:00,52.3,41.3,30.18,NNW,338,0.0,0.0,66,0.00,,SCT300,0.00,VWS V15.00,2014-12-19 08:49:00,
2014-12-19 02:55:00,52.5,41.5,30.18,NNE,22,0.0,0.0,66,0.00,,SCT300,0.00,VWS V15.00,2014-12-19 08:55:00,
2014-12-19 03:00:00,52.5,41.1,30.18,NNW,338,0.0,0.0,65,0.00,,SCT300,0.00,VWS V15.00,2014-12-19 09:00:00,
2014-12-19 03:05:00,52.7,40.9,30.18,NNE,22,0.0,0.0,64,0.00,,SCT300,0.00,VWS V15.00,2014-12-19 09:05:00,
2014-12-19 03:10:00,52.7,40.5,30.18,NE,45,0.0,0.0,63,0.00,,SCT300,0.00,VWS V15.00,2014-12-19 09:10:00,
2014-12-19 03:15:00,52.7,40.9,30.18,ESE,112,0.0,0.0,64,0.00,,SCT300,0.00,VWS V15.00,2014-12-19 09:15:00,
2014-12-19 03:20:00,52.7,40.9,30.18,ESE,112,0.0,0.0,64,0.00,,SCT300,0.00,VWS V15.00,2014-12-19 09:20:00,
2014-12-19 03:25:00,52.7,40.9,30.18,NNE,22,0.0,0.0,64,0.00,,SCT300,0.00,VWS V15.00,2014-12-19 09:25:00,
2014-12-19 03:30:00,52.7,40.9,30.18,NW,315,0.0,0.0,64,0.00,,SCT300,0.00,VWS V15.00,2014-12-19 09:30:00,
2014-12-19 03:35:00,52.7,40.5,30.18,WNW,292,0.0,0.0,63,0.00,,SCT300,0.00,VWS V15.00,2014-12-19 09:35:00,
2014-12-19 03:40:00,52.7,40.9,30.18,ESE,112,0.0,0.0,64,0.00,,SCT300,0.00,VWS V15.00,2014-12-19 09:40:00,
2014-12-19 03:49:00,52.7,40.9,30.18,NW,315,0.0,0.0,64,0.00,,SCT300,0.00,VWS V15.00,2014-12-19 09:49:00,
2014-12-19 03:54:00,52.7,40.5,30.18,NW,315,0.0,0.0,63,0.00,,SCT300,0.00,VWS V15.00,2014-12-19 09:54:00,
2014-12-19 03:59:00,52.7,40.9,30.18,NW,315,0.0,0.0,64,0.00,,SCT300,0.00,VWS V15.00,2014-12-19 09:59:00,
2014-12-19 04:04:00,52.7,40.9,30.15,NW,315,0.0,0.0,64,0.00,,SCT300,0.00,VWS V15.00,2014-12-19 10:04:00,
2014-12-19 04:09:00,52.7,40.9,30.15,NNE,22,0.0,0.0,64,0.00,,SCT300,0.00,VWS V15.00,2014-12-19 10:09:00,
2014-12-19 04:14:00,52.7,40.9,30.15,East,90,0.0,0.0,64,0.00,,SCT300,0.00,VWS V15.00,2014-12-19 10:14:00,
2014-12-19 04:19:00,52.5,40.7,30.15,East,90,0.0,0.0,64,0.00,,SCT300,0.00,VWS V15.00,2014-12-19 10:19:00,
2014-12-19 04:24:00,52.5,40.7,30.15,East,90,0.0,0.0,64,0.00,,SCT300,0.00,VWS V15.00,2014-12-19 10:24:00,
2014-12-19 04:29:00,52.5,40.7,30.15,East,90,0.0,0.0,64,0.00,,SCT300,0.00,VWS V15.00,2014-12-19 10:29:00,